{"data":{"norad_id":39240,"intl_designator":"2013-046B","name":"YAOGAN-17 01B","alt_names":[],"object_type":"PAYLOAD","status":"ACTIVE","operator":null,"country":"PRC","launch_date":"2013-09-01","launch_site_code":"JSC","launch_vehicle":null,"mission":null,"orbit_class":"UNKNOWN","rcs_meters":2.637,"size_class":null,"mass_kg":null,"dimensions":null,"purposes":[],"wikipedia_slug":null,"has_3d_model":false,"image_url":null,"decayed_at":null,"tle_current":{"epoch":"2026-09-20T04:25:59.605824Z","epoch_age_seconds":60872,"freshness":"FRESH","line1":"1 39240U 13046B   26263.18471766  .00000034  00000+0  11888-3 0  9996","line2":"2 39240  63.3852 205.8105 0434789  11.8566 349.2309 13.45480967641110","mean_motion":13.45480967,"eccentricity":0.0434789,"inclination_deg":63.3852,"raan_deg":205.8105,"arg_perigee_deg":11.8566,"mean_anomaly_deg":349.2309,"bstar":0.00011888,"rev_number":64111,"period_min":107.02492531059,"perigee_km":764.27157781267,"apogee_km":1413.5914272417,"semimajor_km":7467.0685025272,"source":"CELESTRAK","updated_at":"2026-09-20T09:00:13.919520Z"}}}